Torna al catalogo

FREGAT DEB

LostUNKNOWN
NORAD 45828·DEBRIS·🇷🇺 Russia

Lanciato Jul 18, 2011 da Baikonur Cosmodrome

Loading…

Prossimi Passaggi (prossime 24 ore)

TLE

ObsoletoSource: Space-Track

Epoca: Jul 14, 2020, 09:30 UTC

1 45828U 11037BN  20196.39617862 -.00107127  00000-0 -45031+0 0  9991
2 45828  51.3397 326.6549 2171290  70.9038 311.3232  9.81368529  4102

Traccia FREGAT DEB in tempo reale con AllMySat

Download on the App Store